Location: Fluertsh�userhof
(48.7537°N, 10.3850°E)
Time: 08:14:31
(UTC+00:00)

Cosmos 1833 Rocket - Pass Details

Date: 18 September 2020
Orbit: 831 x 841 km, 71.0° (Epoch: 24 October)

Event Time Altitude Azimuth Distance (km) Brightness Sun altitude
Rises 19:59:24 0° 334° (NNW) 3,408 6.8 -24.8°
Reaches altitude 10° 20:01:58 10° 340° (NNW) 2,470 5.8 -25.2°
Maximum altitude 20:07:25 46° 54° (NE) 1,122 3.1 -25.9°
Enters shadow 20:07:27 46° 55° (NE) 1,122 3.1 -25.9°
